User: anonymous   Login
Location: Unspecified
(0.0000°N, 0.0000°E)
Time: 03:08:19
(UTC+00:00)
Language:

Injun 5 (Explorer 40) - Orbit

View from above orbital plane
View from above orbital plane
View from above satellite
View from above satellite

Ground track
Ground track

The orbit data is extracted from the following two-line orbital elements,

1  3338U 68066B   19053.83465148 +.00000103 +00000-0 +10169-3 0  9994
2  3338 080.6642 328.1677 1133602 007.5209 354.1350 12.22874661251769
Epoch (UTC): 22 February 2019 20:01:53
Eccentricity: 0.1133602
inclination: 80.6642°
perigee height: 678 km
apogee height: 2482 km
right ascension of ascending node: 328.1677°
argument of perigee: 7.5209°
revolutions per day: 12.22874661
mean anomaly at epoch: 354.1350°
orbit number at epoch: 25176

The dashed part of the orbit path shows where the satellite is in the earth's shadow,  

DLR